Tracking 29892 objects as of 21-Nov-2024
HD Live streaming from Space Station
objects crossing your sky now

OBJECT B

Track OBJECT B now!
10-day predictions


NORAD ID: 57289
Int'l Code: 2023-095B
Perigee: 1,106.1 km
Apogee: 1,130.5 km
Inclination: 86.5 °
Period: 107.5 minutes
Semi major axis: 7489 km
RCS: Unknown
Launch date: July 9, 2023
Source: People's Republic of China (PRC)
Launch site: Jiuquan Satellite Launch Center, China (JSC)
Your satellite tracking list
Your tracking list is empty




NASA's NSSDC Master Catalog

Two Line Element Set (TLE):
1 57289U 23095B   24326.10246159  .00000082  00000-0  12411-3 0  9997
2 57289  86.5075 203.0604 0016341 350.4395   9.6434 13.39497124 67038
Source of the keplerian elements: AFSPC